Year,Month,Day,Hour,Minute,Value (Times are PST for temperature in C)
2009,07,05,00,00,18.10
2009,07,05,00,01,18.20
2009,07,05,00,02,18.30
2009,07,05,00,03,18.40
2009,07,05,00,04,18.50
2009,07,05,00,05,18.50
2009,07,05,00,06,18.60
2009,07,05,00,07,18.60
2009,07,05,00,08,18.60
2009,07,05,00,09,18.60
2009,07,05,00,10,18.50
2009,07,05,00,11,18.50
2009,07,05,00,12,18.40
2009,07,05,00,13,18.40
2009,07,05,00,14,18.30
2009,07,05,00,15,18.30
2009,07,05,00,16,18.20
2009,07,05,00,17,18.20
2009,07,05,00,18,18.20
2009,07,05,00,19,18.20
2009,07,05,00,20,18.10
2009,07,05,00,21,18.10
2009,07,05,00,22,18.10
2009,07,05,00,23,18.00
2009,07,05,00,24,17.90
2009,07,05,00,25,17.90
2009,07,05,00,26,17.90
2009,07,05,00,27,17.90
2009,07,05,00,28,17.90
2009,07,05,00,29,17.90
2009,07,05,00,30,17.80
2009,07,05,00,31,17.80
2009,07,05,00,32,17.80
2009,07,05,00,33,17.80
2009,07,05,00,34,17.70
2009,07,05,00,35,17.70
2009,07,05,00,36,17.60
2009,07,05,00,37,17.60
2009,07,05,00,38,17.60
2009,07,05,00,39,17.70
2009,07,05,00,40,17.70
2009,07,05,00,41,17.70
2009,07,05,00,42,17.80
2009,07,05,00,43,17.80
2009,07,05,00,44,17.90
2009,07,05,00,45,17.90
2009,07,05,00,46,17.90
2009,07,05,00,47,17.90
2009,07,05,00,48,17.90
2009,07,05,00,49,17.90
2009,07,05,00,50,17.90
2009,07,05,00,51,17.90
2009,07,05,00,52,18.00
2009,07,05,00,53,18.10
2009,07,05,00,54,18.10
2009,07,05,00,55,18.10
2009,07,05,00,56,18.20
2009,07,05,00,57,18.20
2009,07,05,00,58,18.20
2009,07,05,00,59,18.20
2009,07,05,01,00,18.20
2009,07,05,01,01,18.20
2009,07,05,01,02,18.20
2009,07,05,01,03,18.20
2009,07,05,01,04,18.20
2009,07,05,01,05,18.20
2009,07,05,01,06,18.20
2009,07,05,01,07,18.20
2009,07,05,01,08,18.20
2009,07,05,01,09,18.20
2009,07,05,01,10,18.20
2009,07,05,01,11,18.20
2009,07,05,01,12,18.20
2009,07,05,01,13,18.20
2009,07,05,01,14,18.20
2009,07,05,01,15,18.20
2009,07,05,01,16,18.20
2009,07,05,01,17,18.20
2009,07,05,01,18,18.30
2009,07,05,01,19,18.30
2009,07,05,01,20,18.30
2009,07,05,01,21,18.40
2009,07,05,01,22,18.40
2009,07,05,01,23,18.40
2009,07,05,01,24,18.50
2009,07,05,01,25,18.50
2009,07,05,01,26,18.50
2009,07,05,01,27,18.50
2009,07,05,01,28,18.60
2009,07,05,01,29,18.60
2009,07,05,01,30,18.60
2009,07,05,01,31,18.60
2009,07,05,01,32,18.70
2009,07,05,01,33,18.70
2009,07,05,01,34,18.70
2009,07,05,01,35,18.70
2009,07,05,01,36,18.70
2009,07,05,01,37,18.60
2009,07,05,01,38,18.60
2009,07,05,01,39,18.50
2009,07,05,01,40,18.50
2009,07,05,01,41,18.40
2009,07,05,01,42,18.30
2009,07,05,01,43,18.20
2009,07,05,01,44,18.20
2009,07,05,01,45,18.10
2009,07,05,01,46,18.00
2009,07,05,01,47,17.90
2009,07,05,01,48,17.80
2009,07,05,01,49,17.80
2009,07,05,01,50,17.70
2009,07,05,01,51,17.70
2009,07,05,01,52,17.70
2009,07,05,01,53,17.80
2009,07,05,01,54,17.80
2009,07,05,01,55,17.80
2009,07,05,01,56,17.80
2009,07,05,01,57,17.80
2009,07,05,01,58,17.80
2009,07,05,01,59,17.80
2009,07,05,02,00,17.70
2009,07,05,02,01,17.70
2009,07,05,02,02,17.70
2009,07,05,02,03,17.70
2009,07,05,02,04,17.70
2009,07,05,02,05,17.60
2009,07,05,02,06,17.50
2009,07,05,02,07,17.40
2009,07,05,02,08,17.30
2009,07,05,02,09,17.20
2009,07,05,02,10,17.20
2009,07,05,02,11,17.10
2009,07,05,02,12,17.00
2009,07,05,02,13,16.90
2009,07,05,02,14,16.80
2009,07,05,02,15,16.70
2009,07,05,02,16,16.60
2009,07,05,02,17,16.50
2009,07,05,02,18,16.40
2009,07,05,02,19,16.30
2009,07,05,02,20,16.20
2009,07,05,02,21,16.10
2009,07,05,02,22,16.10
2009,07,05,02,23,16.00
2009,07,05,02,24,15.90
2009,07,05,02,25,15.80
2009,07,05,02,26,15.80
2009,07,05,02,27,15.80
2009,07,05,02,28,15.80
2009,07,05,02,29,15.80
2009,07,05,02,30,15.70
2009,07,05,02,31,15.70
2009,07,05,02,32,15.60
2009,07,05,02,33,15.60
2009,07,05,02,34,15.60
2009,07,05,02,35,15.60
2009,07,05,02,36,15.60
2009,07,05,02,37,15.60
2009,07,05,02,38,15.60
2009,07,05,02,39,15.60
2009,07,05,02,40,15.60
2009,07,05,02,41,15.60
2009,07,05,02,42,15.50
2009,07,05,02,43,15.50
2009,07,05,02,44,15.50
2009,07,05,02,45,15.50
2009,07,05,02,46,15.50
2009,07,05,02,47,15.50
2009,07,05,02,48,15.60
2009,07,05,02,49,15.60
2009,07,05,02,50,15.60
2009,07,05,02,51,15.60
2009,07,05,02,52,15.60
2009,07,05,02,53,15.50
2009,07,05,02,54,15.50
2009,07,05,02,55,15.50
2009,07,05,02,56,15.40
2009,07,05,02,57,15.40
2009,07,05,02,58,15.30
2009,07,05,02,59,15.30
2009,07,05,03,00,15.30
2009,07,05,03,01,15.30
2009,07,05,03,02,15.30
2009,07,05,03,03,15.30
2009,07,05,03,04,15.30
2009,07,05,03,05,15.30
2009,07,05,03,06,15.30
2009,07,05,03,07,15.30
2009,07,05,03,08,15.30
2009,07,05,03,09,15.30
2009,07,05,03,10,15.30
2009,07,05,03,11,15.20
2009,07,05,03,12,15.20
2009,07,05,03,13,15.20
2009,07,05,03,14,15.20
2009,07,05,03,15,15.20
2009,07,05,03,16,15.20
2009,07,05,03,17,15.20
2009,07,05,03,18,15.20
2009,07,05,03,19,15.20
2009,07,05,03,20,15.20
2009,07,05,03,21,15.20
2009,07,05,03,22,15.20
2009,07,05,03,23,15.20
2009,07,05,03,24,15.20
2009,07,05,03,25,15.30
2009,07,05,03,26,15.30
2009,07,05,03,27,15.30
2009,07,05,03,28,15.30
2009,07,05,03,29,15.30
2009,07,05,03,30,15.30
2009,07,05,03,31,15.30
2009,07,05,03,32,15.30
2009,07,05,03,33,15.40
2009,07,05,03,34,15.40
2009,07,05,03,35,15.50
2009,07,05,03,36,15.50
2009,07,05,03,37,15.60
2009,07,05,03,38,15.70
2009,07,05,03,39,15.80
2009,07,05,03,40,15.80
2009,07,05,03,41,16.00
2009,07,05,03,42,16.10
2009,07,05,03,43,16.20
2009,07,05,03,44,16.30
2009,07,05,03,45,16.40
2009,07,05,03,46,16.50
2009,07,05,03,47,16.60
2009,07,05,03,48,16.70
2009,07,05,03,49,16.70
2009,07,05,03,50,16.80
2009,07,05,03,51,16.90
2009,07,05,03,52,16.90
2009,07,05,03,53,17.00
2009,07,05,03,54,17.00
2009,07,05,03,55,17.10
2009,07,05,03,56,17.20
2009,07,05,03,57,17.20
2009,07,05,03,58,17.30
2009,07,05,03,59,17.30
2009,07,05,04,00,17.30
2009,07,05,04,01,17.30
2009,07,05,04,02,17.40
2009,07,05,04,03,17.40
2009,07,05,04,04,17.40
2009,07,05,04,05,17.40
2009,07,05,04,06,17.40
2009,07,05,04,07,17.40
2009,07,05,04,08,17.40
2009,07,05,04,09,17.40
2009,07,05,04,10,17.40
2009,07,05,04,11,17.30
2009,07,05,04,12,17.30
2009,07,05,04,13,17.20
2009,07,05,04,14,17.10
2009,07,05,04,15,17.00
2009,07,05,04,16,17.00
2009,07,05,04,17,16.90
2009,07,05,04,18,16.90
2009,07,05,04,19,16.90
2009,07,05,04,20,16.80
2009,07,05,04,21,16.80
2009,07,05,04,22,16.80
2009,07,05,04,23,16.80
2009,07,05,04,24,16.80
2009,07,05,04,25,16.80
2009,07,05,04,26,16.80
2009,07,05,04,27,16.90
2009,07,05,04,28,16.90
2009,07,05,04,29,17.00
2009,07,05,04,30,17.00
2009,07,05,04,31,17.10
2009,07,05,04,32,17.10
2009,07,05,04,33,17.20
2009,07,05,04,34,17.20
2009,07,05,04,35,17.20
2009,07,05,04,36,17.30
2009,07,05,04,37,17.30
2009,07,05,04,38,17.30
2009,07,05,04,39,17.30
2009,07,05,04,40,17.30
2009,07,05,04,41,17.20
2009,07,05,04,42,17.20
2009,07,05,04,43,17.20
2009,07,05,04,44,17.10
2009,07,05,04,45,17.10
2009,07,05,04,46,17.10
2009,07,05,04,47,17.00
2009,07,05,04,48,17.00
2009,07,05,04,49,17.00
2009,07,05,04,50,17.00
2009,07,05,04,51,16.90
2009,07,05,04,52,16.90
2009,07,05,04,53,16.80
2009,07,05,04,54,16.80
2009,07,05,04,55,16.80
2009,07,05,04,56,16.80
2009,07,05,04,57,16.70
2009,07,05,04,58,16.70
2009,07,05,04,59,16.70
2009,07,05,05,00,16.70
2009,07,05,05,01,16.80
2009,07,05,05,02,16.90
2009,07,05,05,03,16.90
2009,07,05,05,04,17.00
2009,07,05,05,05,17.00
2009,07,05,05,06,17.10
2009,07,05,05,07,17.20
2009,07,05,05,08,17.20
2009,07,05,05,09,17.30
2009,07,05,05,10,17.30
2009,07,05,05,11,17.40
2009,07,05,05,12,17.50
2009,07,05,05,13,17.50
2009,07,05,05,14,17.60
2009,07,05,05,15,17.60
2009,07,05,05,16,17.60
2009,07,05,05,17,17.60
2009,07,05,05,18,17.70
2009,07,05,05,19,17.70
2009,07,05,05,20,17.80
2009,07,05,05,21,17.80
2009,07,05,05,22,17.80
2009,07,05,05,23,17.80
2009,07,05,05,24,17.80
2009,07,05,05,25,17.80
2009,07,05,05,26,17.80
2009,07,05,05,27,17.70
2009,07,05,05,28,17.70
2009,07,05,05,29,17.60
2009,07,05,05,30,17.60
2009,07,05,05,31,17.50
2009,07,05,05,32,17.40
2009,07,05,05,33,17.40
2009,07,05,05,34,17.30
2009,07,05,05,35,17.30
2009,07,05,05,36,17.30
2009,07,05,05,37,17.30
2009,07,05,05,38,17.30
2009,07,05,05,39,17.20
2009,07,05,05,40,17.20
2009,07,05,05,41,17.20
2009,07,05,05,42,17.20
2009,07,05,05,43,17.20
2009,07,05,05,44,17.20
2009,07,05,05,45,17.20
2009,07,05,05,46,17.30
2009,07,05,05,47,17.30
2009,07,05,05,48,17.30
2009,07,05,05,49,17.30
2009,07,05,05,50,17.30
2009,07,05,05,51,17.30
2009,07,05,05,52,17.30
2009,07,05,05,53,17.30
2009,07,05,05,54,17.30
2009,07,05,05,55,17.30
2009,07,05,05,56,17.30
2009,07,05,05,57,17.20
2009,07,05,05,58,17.20
2009,07,05,05,59,17.20
2009,07,05,06,00,17.20
2009,07,05,06,01,17.20
2009,07,05,06,02,17.20
2009,07,05,06,03,17.20
2009,07,05,06,04,17.20
2009,07,05,06,05,17.20
2009,07,05,06,06,17.20
2009,07,05,06,07,17.00
2009,07,05,06,08,16.90
2009,07,05,06,09,16.90
2009,07,05,06,10,16.80
2009,07,05,06,11,16.70
2009,07,05,06,12,16.70
2009,07,05,06,13,16.60
2009,07,05,06,14,16.50
2009,07,05,06,15,16.40
2009,07,05,06,16,16.40
2009,07,05,06,17,16.20
2009,07,05,06,18,16.20
2009,07,05,06,19,16.10
2009,07,05,06,20,16.10
2009,07,05,06,21,16.10
2009,07,05,06,22,16.10
2009,07,05,06,23,15.90
2009,07,05,06,24,15.90
2009,07,05,06,25,15.90
2009,07,05,06,26,15.90
2009,07,05,06,27,15.90
2009,07,05,06,28,15.90
2009,07,05,06,29,15.90
2009,07,05,06,30,15.90
2009,07,05,06,31,16.00
2009,07,05,06,32,16.10
2009,07,05,06,33,16.10
2009,07,05,06,34,16.10
2009,07,05,06,35,16.00
2009,07,05,06,36,15.90
2009,07,05,06,37,15.90
2009,07,05,06,38,15.90
2009,07,05,06,39,15.90
2009,07,05,06,40,15.90
2009,07,05,06,41,15.90
2009,07,05,06,42,15.90
2009,07,05,06,43,15.90
2009,07,05,06,44,15.90
2009,07,05,06,45,15.90
2009,07,05,06,46,15.90
2009,07,05,06,47,16.00
2009,07,05,06,48,16.10
2009,07,05,06,49,16.10
2009,07,05,06,50,16.10
2009,07,05,06,51,16.10
2009,07,05,06,52,16.10
2009,07,05,06,53,16.10
2009,07,05,06,54,16.10
2009,07,05,06,55,16.20
2009,07,05,06,56,16.20
2009,07,05,06,57,16.20
2009,07,05,06,58,16.20
2009,07,05,06,59,16.20
2009,07,05,07,00,16.20
2009,07,05,07,01,16.30
2009,07,05,07,02,16.30
2009,07,05,07,03,16.30
2009,07,05,07,04,16.40
2009,07,05,07,05,16.40
2009,07,05,07,06,16.40
2009,07,05,07,07,16.40
2009,07,05,07,08,16.50
2009,07,05,07,09,16.60
2009,07,05,07,10,16.60
2009,07,05,07,11,16.70
2009,07,05,07,12,16.70
2009,07,05,07,13,16.70
2009,07,05,07,14,16.80
2009,07,05,07,15,16.80
2009,07,05,07,16,16.90
2009,07,05,07,17,16.90
2009,07,05,07,18,17.00
2009,07,05,07,19,17.10
2009,07,05,07,20,17.20
2009,07,05,07,21,17.20
2009,07,05,07,22,17.30
2009,07,05,07,23,17.40
2009,07,05,07,24,17.50
2009,07,05,07,25,17.50
2009,07,05,07,26,17.60
2009,07,05,07,27,17.70
2009,07,05,07,28,17.80
2009,07,05,07,29,17.90
2009,07,05,07,30,17.90
2009,07,05,07,31,18.00
2009,07,05,07,32,18.10
2009,07,05,07,33,18.10
2009,07,05,07,34,18.10
2009,07,05,07,35,18.20
2009,07,05,07,36,18.20
2009,07,05,07,37,18.20
2009,07,05,07,38,18.20
2009,07,05,07,39,18.20
2009,07,05,07,40,18.30
2009,07,05,07,41,18.30
2009,07,05,07,42,18.30
2009,07,05,07,43,18.30
2009,07,05,07,44,18.30
2009,07,05,07,45,18.40
2009,07,05,07,46,18.40
2009,07,05,07,47,18.40
2009,07,05,07,48,18.50
2009,07,05,07,49,18.50
2009,07,05,07,50,18.60
2009,07,05,07,51,18.60
2009,07,05,07,52,18.60
2009,07,05,07,53,18.60
2009,07,05,07,54,18.60
2009,07,05,07,55,18.70
2009,07,05,07,56,18.70
2009,07,05,07,57,18.80
2009,07,05,07,58,18.80
2009,07,05,07,59,18.90
2009,07,05,08,00,18.90
2009,07,05,08,01,18.90
2009,07,05,08,02,19.00
2009,07,05,08,03,19.10
2009,07,05,08,04,19.10
2009,07,05,08,05,19.10
2009,07,05,08,06,19.10
2009,07,05,08,07,19.10
2009,07,05,08,08,19.10
2009,07,05,08,09,19.00
2009,07,05,08,10,18.90
2009,07,05,08,11,18.90
2009,07,05,08,12,18.90
2009,07,05,08,13,18.90
2009,07,05,08,14,18.90
2009,07,05,08,15,18.90
2009,07,05,08,16,18.90
2009,07,05,08,17,18.80
2009,07,05,08,18,18.80
2009,07,05,08,19,18.70
2009,07,05,08,20,18.70
2009,07,05,08,21,18.70
2009,07,05,08,22,18.70
2009,07,05,08,23,18.70
2009,07,05,08,24,18.70
2009,07,05,08,25,18.70
2009,07,05,08,26,18.80
2009,07,05,08,27,18.80
2009,07,05,08,28,18.70
2009,07,05,08,29,18.70
2009,07,05,08,30,18.60
2009,07,05,08,31,18.60
2009,07,05,08,32,18.70
2009,07,05,08,33,18.60
2009,07,05,08,34,18.60
2009,07,05,08,35,18.60
2009,07,05,08,36,18.60
2009,07,05,08,37,18.50
2009,07,05,08,38,18.40
2009,07,05,08,39,18.40
2009,07,05,08,40,18.40
2009,07,05,08,41,18.50
2009,07,05,08,42,18.50
2009,07,05,08,43,18.50
2009,07,05,08,44,18.60
2009,07,05,08,45,18.60
2009,07,05,08,46,18.60
2009,07,05,08,47,18.50
2009,07,05,08,48,18.50
2009,07,05,08,49,18.40
2009,07,05,08,50,18.50
2009,07,05,08,51,18.50
2009,07,05,08,52,18.50
2009,07,05,08,53,18.50
2009,07,05,08,54,18.40
2009,07,05,08,55,18.30
2009,07,05,08,56,18.20
2009,07,05,08,57,18.20
2009,07,05,08,58,18.20
2009,07,05,08,59,18.20
2009,07,05,09,00,18.30
2009,07,05,09,01,18.20
2009,07,05,09,02,18.20
2009,07,05,09,03,18.20
2009,07,05,09,04,18.10
2009,07,05,09,05,18.00
2009,07,05,09,06,17.90
2009,07,05,09,07,17.90
2009,07,05,09,08,17.90
2009,07,05,09,09,17.90
2009,07,05,09,10,17.90
2009,07,05,09,11,18.00
2009,07,05,09,12,18.10
2009,07,05,09,13,18.10
2009,07,05,09,14,18.10
2009,07,05,09,15,18.10
2009,07,05,09,16,18.10
2009,07,05,09,17,18.00
2009,07,05,09,18,17.90
2009,07,05,09,19,17.90
2009,07,05,09,20,17.90
2009,07,05,09,21,17.90
2009,07,05,09,22,17.90
2009,07,05,09,23,17.90
2009,07,05,09,24,17.90
2009,07,05,09,25,17.90
2009,07,05,09,26,17.90
2009,07,05,09,27,17.90
2009,07,05,09,28,17.90
2009,07,05,09,29,17.90
2009,07,05,09,30,17.90
2009,07,05,09,31,18.00
2009,07,05,09,32,18.10
2009,07,05,09,33,18.20
2009,07,05,09,34,18.20
2009,07,05,09,35,18.30
2009,07,05,09,36,18.30
2009,07,05,09,37,18.40
2009,07,05,09,38,18.40
2009,07,05,09,39,18.40
2009,07,05,09,40,18.40
2009,07,05,09,41,18.40
2009,07,05,09,42,18.40
2009,07,05,09,43,18.50
2009,07,05,09,44,18.50
2009,07,05,09,45,18.60
2009,07,05,09,46,18.70
2009,07,05,09,47,18.80
2009,07,05,09,48,18.90
2009,07,05,09,49,18.90
2009,07,05,09,50,18.90
2009,07,05,09,51,19.00
2009,07,05,09,52,19.10
2009,07,05,09,53,19.10
2009,07,05,09,54,19.10
2009,07,05,09,55,19.10
2009,07,05,09,56,19.20
2009,07,05,09,57,19.20
2009,07,05,09,58,19.30
2009,07,05,09,59,19.30
2009,07,05,10,00,19.40
2009,07,05,10,01,19.60
2009,07,05,10,02,19.70
2009,07,05,10,03,19.80
2009,07,05,10,04,20.00
2009,07,05,10,05,20.20
2009,07,05,10,06,20.20
2009,07,05,10,07,20.30
2009,07,05,10,08,20.30
2009,07,05,10,09,20.40
2009,07,05,10,10,20.40
2009,07,05,10,11,20.40
2009,07,05,10,12,20.20
2009,07,05,10,13,20.20
2009,07,05,10,14,20.20
2009,07,05,10,15,20.10
2009,07,05,10,16,20.10
2009,07,05,10,17,20.00
2009,07,05,10,18,19.90
2009,07,05,10,19,19.80
2009,07,05,10,20,19.80
2009,07,05,10,21,19.90
2009,07,05,10,22,19.90
2009,07,05,10,23,19.90
2009,07,05,10,24,19.80
2009,07,05,10,25,19.80
2009,07,05,10,26,19.70
2009,07,05,10,27,19.70
2009,07,05,10,28,19.60
2009,07,05,10,29,19.70
2009,07,05,10,30,19.80
2009,07,05,10,31,19.90
2009,07,05,10,32,19.90
2009,07,05,10,33,19.90
2009,07,05,10,34,19.90
2009,07,05,10,35,19.90
2009,07,05,10,36,20.00
2009,07,05,10,37,20.10
2009,07,05,10,38,20.10
2009,07,05,10,39,20.20
2009,07,05,10,40,20.20
2009,07,05,10,41,20.20
2009,07,05,10,42,20.30
2009,07,05,10,43,20.40
2009,07,05,10,44,20.50
2009,07,05,10,45,20.60
2009,07,05,10,46,20.60
2009,07,05,10,47,20.50
2009,07,05,10,48,20.40
2009,07,05,10,49,20.30
2009,07,05,10,50,20.30
2009,07,05,10,51,20.20
2009,07,05,10,52,20.20
2009,07,05,10,53,20.20
2009,07,05,10,54,20.20
2009,07,05,10,55,20.20
2009,07,05,10,56,20.10
2009,07,05,10,57,19.90
2009,07,05,10,58,19.90
2009,07,05,10,59,19.80
2009,07,05,11,00,19.80
2009,07,05,11,01,19.80
2009,07,05,11,02,19.90
2009,07,05,11,03,20.00
2009,07,05,11,04,20.00
2009,07,05,11,05,19.90
2009,07,05,11,06,19.90
2009,07,05,11,07,19.70
2009,07,05,11,08,19.60
2009,07,05,11,09,19.50
2009,07,05,11,10,19.50
2009,07,05,11,11,19.50
2009,07,05,11,12,19.50
2009,07,05,11,13,19.50
2009,07,05,11,14,19.50
2009,07,05,11,15,19.60
2009,07,05,11,16,19.60
2009,07,05,11,17,19.60
2009,07,05,11,18,19.70
2009,07,05,11,19,19.80
2009,07,05,11,20,19.80
2009,07,05,11,21,19.80
2009,07,05,11,22,19.90
2009,07,05,11,23,19.90
2009,07,05,11,24,19.90
2009,07,05,11,25,20.10
2009,07,05,11,26,20.10
2009,07,05,11,27,20.00
2009,07,05,11,28,19.90
2009,07,05,11,29,19.80
2009,07,05,11,30,19.80
2009,07,05,11,31,19.70
2009,07,05,11,32,19.70
2009,07,05,11,33,19.60
2009,07,05,11,34,19.60
2009,07,05,11,35,19.50
2009,07,05,11,36,19.50
2009,07,05,11,37,19.50
2009,07,05,11,38,19.50
2009,07,05,11,39,19.60
2009,07,05,11,40,19.60
2009,07,05,11,41,19.60
2009,07,05,11,42,19.70
2009,07,05,11,43,19.70
2009,07,05,11,44,19.70
2009,07,05,11,45,19.70
2009,07,05,11,46,19.70
2009,07,05,11,47,19.70
2009,07,05,11,48,19.70
2009,07,05,11,49,19.60
2009,07,05,11,50,19.60
2009,07,05,11,51,19.60
2009,07,05,11,52,19.60
2009,07,05,11,53,19.60
2009,07,05,11,54,19.70
2009,07,05,11,55,19.80
2009,07,05,11,56,19.90
2009,07,05,11,57,19.90
2009,07,05,11,58,19.90
2009,07,05,11,59,19.90
2009,07,05,12,00,19.90
2009,07,05,12,01,19.90
2009,07,05,12,02,19.90
2009,07,05,12,03,20.10
2009,07,05,12,04,20.10
2009,07,05,12,05,20.10
2009,07,05,12,06,20.10
2009,07,05,12,07,20.10
2009,07,05,12,08,20.00
2009,07,05,12,09,19.90
2009,07,05,12,10,19.90
2009,07,05,12,11,19.90
2009,07,05,12,12,20.00
2009,07,05,12,13,20.10
2009,07,05,12,14,20.10
2009,07,05,12,15,20.20
2009,07,05,12,16,20.30
2009,07,05,12,17,20.30
2009,07,05,12,18,20.20
2009,07,05,12,19,20.20
2009,07,05,12,20,20.30
2009,07,05,12,21,20.40
2009,07,05,12,22,20.40
2009,07,05,12,23,20.40
2009,07,05,12,24,20.40
2009,07,05,12,25,20.40
2009,07,05,12,26,20.30
2009,07,05,12,27,20.30
2009,07,05,12,28,20.40
2009,07,05,12,29,20.50
2009,07,05,12,30,20.60
2009,07,05,12,31,20.60
2009,07,05,12,32,20.50
2009,07,05,12,33,20.50
2009,07,05,12,34,20.50
2009,07,05,12,35,20.40
2009,07,05,12,36,20.40
2009,07,05,12,37,20.40
2009,07,05,12,38,20.40
2009,07,05,12,39,20.40
2009,07,05,12,40,20.50
2009,07,05,12,41,20.50
2009,07,05,12,42,20.60
2009,07,05,12,43,20.60
2009,07,05,12,44,20.50
2009,07,05,12,45,20.50
2009,07,05,12,46,20.40
2009,07,05,12,47,20.30
2009,07,05,12,48,20.30
2009,07,05,12,49,20.30
2009,07,05,12,50,20.40
2009,07,05,12,51,20.60
2009,07,05,12,52,20.70
2009,07,05,12,53,20.80
2009,07,05,12,54,20.80
2009,07,05,12,55,20.90
2009,07,05,12,56,20.90
2009,07,05,12,57,21.00
2009,07,05,12,58,21.10
2009,07,05,12,59,21.10
2009,07,05,13,00,21.20
2009,07,05,13,01,21.20
2009,07,05,13,02,21.20
2009,07,05,13,03,21.20
2009,07,05,13,04,21.10
2009,07,05,13,05,21.00
2009,07,05,13,06,21.00
2009,07,05,13,07,21.00
2009,07,05,13,08,21.10
2009,07,05,13,09,21.20
2009,07,05,13,10,21.20
2009,07,05,13,11,21.30
2009,07,05,13,12,21.40
2009,07,05,13,13,21.50
2009,07,05,13,14,21.60
2009,07,05,13,15,21.70
2009,07,05,13,16,21.90
2009,07,05,13,17,22.00
2009,07,05,13,18,22.10
2009,07,05,13,19,22.10
2009,07,05,13,20,22.20
2009,07,05,13,21,22.20
2009,07,05,13,22,22.10
2009,07,05,13,23,22.20
2009,07,05,13,24,22.20
2009,07,05,13,25,22.10
2009,07,05,13,26,22.00
2009,07,05,13,27,21.90
2009,07,05,13,28,21.70
2009,07,05,13,29,21.70
2009,07,05,13,30,21.60
2009,07,05,13,31,21.60
2009,07,05,13,32,21.60
2009,07,05,13,33,21.60
2009,07,05,13,34,21.60
2009,07,05,13,35,21.70
2009,07,05,13,36,21.80
2009,07,05,13,37,21.90
2009,07,05,13,38,21.90
2009,07,05,13,39,21.90
2009,07,05,13,40,21.80
2009,07,05,13,41,21.80
2009,07,05,13,42,21.80
2009,07,05,13,43,21.80
2009,07,05,13,44,21.80
2009,07,05,13,45,21.90
2009,07,05,13,46,22.00
2009,07,05,13,47,22.10
2009,07,05,13,48,22.00
2009,07,05,13,49,22.00
2009,07,05,13,50,21.90
2009,07,05,13,51,21.90
2009,07,05,13,52,21.90
2009,07,05,13,53,22.00
2009,07,05,13,54,22.00
2009,07,05,13,55,22.10
2009,07,05,13,56,22.20
2009,07,05,13,57,22.30
2009,07,05,13,58,22.40
2009,07,05,13,59,22.50
2009,07,05,14,00,22.50
2009,07,05,14,01,22.60
2009,07,05,14,02,22.60
2009,07,05,14,03,22.80
2009,07,05,14,04,22.90
2009,07,05,14,05,22.90
2009,07,05,14,06,23.00
2009,07,05,14,07,23.10
2009,07,05,14,08,23.10
2009,07,05,14,09,23.20
2009,07,05,14,10,23.30
2009,07,05,14,11,23.40
2009,07,05,14,12,23.60
2009,07,05,14,13,23.60
2009,07,05,14,14,23.50
2009,07,05,14,15,23.40
2009,07,05,14,16,23.20
2009,07,05,14,17,22.90
2009,07,05,14,18,22.80
2009,07,05,14,19,22.80
2009,07,05,14,20,22.80
2009,07,05,14,21,22.80
2009,07,05,14,22,22.80
2009,07,05,14,23,22.80
2009,07,05,14,24,22.60
2009,07,05,14,25,22.50
2009,07,05,14,26,22.40
2009,07,05,14,27,22.40
2009,07,05,14,28,22.40
2009,07,05,14,29,22.40
2009,07,05,14,30,22.40
2009,07,05,14,31,22.40
2009,07,05,14,32,22.50
2009,07,05,14,33,22.60
2009,07,05,14,34,22.70
2009,07,05,14,35,22.80
2009,07,05,14,36,22.90
2009,07,05,14,37,23.00
2009,07,05,14,38,23.10
2009,07,05,14,39,23.00
2009,07,05,14,40,22.80
2009,07,05,14,41,22.80
2009,07,05,14,42,22.70
2009,07,05,14,43,22.60
2009,07,05,14,44,22.50
2009,07,05,14,45,22.50
2009,07,05,14,46,22.50
2009,07,05,14,47,22.50
2009,07,05,14,48,22.50
2009,07,05,14,49,22.50
2009,07,05,14,50,22.60
2009,07,05,14,51,22.70
2009,07,05,14,52,22.80
2009,07,05,14,53,22.70
2009,07,05,14,54,22.70
2009,07,05,14,55,22.60
2009,07,05,14,56,22.70
2009,07,05,14,57,22.70
2009,07,05,14,58,22.80
2009,07,05,14,59,22.90
2009,07,05,15,00,22.90
2009,07,05,15,01,23.00
2009,07,05,15,02,23.10
2009,07,05,15,03,23.10
2009,07,05,15,04,23.10
2009,07,05,15,05,23.10
2009,07,05,15,06,23.20
2009,07,05,15,07,23.30
2009,07,05,15,08,23.30
2009,07,05,15,09,23.40
2009,07,05,15,10,23.50
2009,07,05,15,11,23.70
2009,07,05,15,12,23.70
2009,07,05,15,13,23.70
2009,07,05,15,14,23.70
2009,07,05,15,15,23.80
2009,07,05,15,16,23.70
2009,07,05,15,17,23.70
2009,07,05,15,18,23.70
2009,07,05,15,19,23.70
2009,07,05,15,20,23.70
2009,07,05,15,21,23.70
2009,07,05,15,22,23.70
2009,07,05,15,23,23.80
2009,07,05,15,24,23.80
2009,07,05,15,25,23.80
2009,07,05,15,26,23.80
2009,07,05,15,27,23.70
2009,07,05,15,28,23.70
2009,07,05,15,29,23.70
2009,07,05,15,30,23.60
2009,07,05,15,31,23.30
2009,07,05,15,32,23.20
2009,07,05,15,33,23.10
2009,07,05,15,34,22.90
2009,07,05,15,35,22.80
2009,07,05,15,36,22.70
2009,07,05,15,37,22.70
2009,07,05,15,38,22.70
2009,07,05,15,39,22.70
2009,07,05,15,40,22.70
2009,07,05,15,41,22.80
2009,07,05,15,42,22.90
2009,07,05,15,43,22.90
2009,07,05,15,44,23.10
2009,07,05,15,45,23.10
2009,07,05,15,46,23.10
2009,07,05,15,47,23.10
2009,07,05,15,48,23.20
2009,07,05,15,49,23.20
2009,07,05,15,50,23.30
2009,07,05,15,51,23.30
2009,07,05,15,52,23.30
2009,07,05,15,53,23.30
2009,07,05,15,54,23.30
2009,07,05,15,55,23.30
2009,07,05,15,56,23.30
2009,07,05,15,57,23.30
2009,07,05,15,58,23.40
2009,07,05,15,59,23.50
2009,07,05,16,00,23.50
2009,07,05,16,01,23.40
2009,07,05,16,02,23.30
2009,07,05,16,03,23.20
2009,07,05,16,04,23.10
2009,07,05,16,05,23.00
2009,07,05,16,06,22.90
2009,07,05,16,07,22.90
2009,07,05,16,08,22.90
2009,07,05,16,09,22.90
2009,07,05,16,10,22.90
2009,07,05,16,11,22.90
2009,07,05,16,12,22.90
2009,07,05,16,13,22.90
2009,07,05,16,14,22.90
2009,07,05,16,15,22.90
2009,07,05,16,16,22.90
2009,07,05,16,17,22.90
2009,07,05,16,18,22.90
2009,07,05,16,19,22.90
2009,07,05,16,20,22.90
2009,07,05,16,21,22.90
2009,07,05,16,22,22.90
2009,07,05,16,23,22.90
2009,07,05,16,24,23.00
2009,07,05,16,25,23.10
2009,07,05,16,26,23.10
2009,07,05,16,27,23.10
2009,07,05,16,28,23.00
2009,07,05,16,29,22.90
2009,07,05,16,30,22.90
2009,07,05,16,31,22.90
2009,07,05,16,32,22.90
2009,07,05,16,33,22.90
2009,07,05,16,34,22.90
2009,07,05,16,35,22.90
2009,07,05,16,36,22.90
2009,07,05,16,37,22.90
2009,07,05,16,38,22.90
2009,07,05,16,39,22.90
2009,07,05,16,40,22.90
2009,07,05,16,41,22.90
2009,07,05,16,42,22.90
2009,07,05,16,43,22.90
2009,07,05,16,44,22.80
2009,07,05,16,45,22.80
2009,07,05,16,46,22.80
2009,07,05,16,47,22.80
2009,07,05,16,48,22.90
2009,07,05,16,49,22.90
2009,07,05,16,50,22.90
2009,07,05,16,51,22.90
2009,07,05,16,52,23.00
2009,07,05,16,53,23.10
2009,07,05,16,54,23.10
2009,07,05,16,55,23.20
2009,07,05,16,56,23.20
2009,07,05,16,57,23.20
2009,07,05,16,58,23.20
2009,07,05,16,59,23.20
2009,07,05,17,00,23.20
2009,07,05,17,01,23.30
2009,07,05,17,02,23.30
2009,07,05,17,03,23.30
2009,07,05,17,04,23.30
2009,07,05,17,05,23.40
2009,07,05,17,06,23.50
2009,07,05,17,07,23.60
2009,07,05,17,08,23.60
2009,07,05,17,09,23.60
2009,07,05,17,10,23.60
2009,07,05,17,11,23.60
2009,07,05,17,12,23.70
2009,07,05,17,13,23.70
2009,07,05,17,14,23.70
2009,07,05,17,15,23.70
2009,07,05,17,16,23.70
2009,07,05,17,17,23.60
2009,07,05,17,18,23.60
2009,07,05,17,19,23.60